Hourly Data Report for August 17, 2021

ALGONQUIN PARK EAST GATE
ONTARIO
Current Station Operator: ECCC - MSC

45°32'00.000" N
78°16'00.000" W
397.00 m
6080192
71581
TNK

Download Data

Hourly Data (August 2021)
Hourly Data Report for August 17, 2021
TIME
LST
Temp Definition
°C
Dew Point Definition
°C
Rel Hum Definition
%
Precip. Amount Definition
mm

Wind Dir Definition
10's deg

Wind Spd Definition
km/h
Visibility Definition
km
Stn Press Definition
kPa
Hmdx Definition


Wind Chill Definition


Weather Definition


00:00 10.8 10.2 96 0.0   0   97.37     LegendNANA
01:00 10.6 10.1 97 0.0   0   97.34     LegendNANA
02:00 11.2 10.7 97 0.0   0   97.33     LegendNANA
03:00 11.9 11.4 96 0.0 10 1   97.32     LegendNANA
04:00 12.4 11.7 96 0.0 0 1   97.30     LegendNANA
05:00 12.5 12.0 97 0.0   0   97.33     LegendNANA
06:00 13.1 12.7 97 0.1 11 2   97.34     LegendNANA
07:00 14.4 13.7 95 0.0   0   97.33     LegendNANA
08:00 16.9 14.8 87 0.0   0   97.37     LegendNANA
09:00 19.4 15.1 76 0.0 12 6   97.32     LegendNANA
10:00 21.7 16.0 70 0.0 11 4   97.30 26   LegendNANA
11:00 23.0 17.1 70 0.0 11 5   97.29 28   LegendNANA
12:00 22.7 17.5 72 0.0 11 7   97.26 28   LegendNANA
13:00 22.8 17.9 74 0.0 13 7   97.23 29   LegendNANA
14:00 22.8 18.7 78 0.0 12 3   97.22 29   LegendNANA
15:00 22.8 19.0 79 0.0 13 4   97.18 30   LegendNANA
16:00 22.8 19.0 79 0.0 12 6   97.16 30   LegendNANA
17:00 22.6 19.2 81 0.0 11 5   97.16 30   LegendNANA
18:00 21.8 19.3 86 0.0 12 5   97.15 29   LegendNANA
19:00 21.1 19.2 89 0.0 12 2   97.19 28   LegendNANA
20:00 20.2 18.9 92 0.0 0 1   97.21 27   LegendNANA
21:00 20.0 19.1 94 0.0 14 2   97.23 27   LegendNANA
22:00 19.4 18.7 95 0.0 11 2   97.25     LegendNANA
23:00 18.5 17.9 96 0.0 13 1   97.27     LegendNANA

Notes on Data Quality.

Legend

  • E = Estimated
  • M = Missing
  • NA = Not Available*
  • [empty] = Indicates an unobserved value
Date modified: